Home   Weather   Salzburg   Past weeks

Flag for Austria Past Weather in Salzburg, Salzburg, Austria — Yesterday and Last 2 Weeks

Now
46 °F

Light rain. Broken clouds.


Feels Like: 41 °F
Forecast: 34 / 40 °F
Wind: 13 mph from Northwest

Location: Salzburg-Flughafen

Current Time: Dec 11, 2016 at 2:51:52 pm

Latest Report: Dec 11, 2016 at 2:20 pm


Visibility: N/A

Pressure: 30.15 "Hg

Humidity: 71%

Dew Point: 37 °F

Location of SalzburgLocation

Past Weather in Salzburg — Graph

°F

Salzburg Temperature Yesterday

Maximum temperature yesterday: 52 °F (at 1:20 pm)
Minimum temperature yesterday: 28 °F (at 9:50 pm)
Average temperature yesterday: 38 °F

High & Low Weather Summary for the Past Weeks

 TemperatureHumidityPressure
High52 °F (Dec 10, 1:20 pm)100% (Nov 27, 4:50 am)30.60 "Hg (Nov 27, 4:50 am)
Low18 °F (Nov 29, 7:20 am)38% (Dec 10, 1:20 pm)29.98 "Hg (Nov 27, 1:50 pm)
Average33 °F81%30.32 "Hg
* Reported Nov 26 1:20 pm — Dec 11 1:20 pm, Salzburg, Weather by CustomWeather, © 2016

Note: Actual official high and low records may vary slightly from our data, if they occured in-between our weather recording intervals... More about our weather records

Advertising

Salzburg Weather History for the Previous 24 Hours

Scroll right to see more
 ConditionsComfort  
Time TempWeatherWind HumidityBarometerVisibility
1:20 pm
Sun, Dec 11
48 °FLight rain. Broken clouds.14 mph66%30.12 "HgN/A
12:50 pm52 °FSprinkles. Partly sunny.13 mph54%30.12 "HgN/A
12:20 pm43 °FSprinkles. Partly sunny.5 mph61%30.12 "HgN/A
11:50 am43 °FPartly sunny.5 mph61%30.12 "HgN/A
11:20 am43 °FScattered clouds.8 mph61%30.12 "HgN/A
10:50 am39 °FScattered clouds.5 mph70%30.15 "HgN/A
10:20 am34 °FScattered clouds.8 mph81%30.15 "HgN/A
9:50 am34 °FScattered clouds.7 mph81%30.18 "HgN/A
9:20 am30 °FSunny.5 mph86%30.18 "Hg10 mi
8:50 am28 °FPassing clouds.3 mph86%30.18 "HgN/A
8:20 am25 °FSunny.6 mph93%30.18 "Hg10 mi
7:50 am21 °FSunny.3 mph93%30.18 "Hg10 mi
7:20 am25 °FClear.2 mph93%30.18 "Hg10 mi
6:50 am23 °FClear.1 mph93%30.15 "Hg10 mi
6:20 am21 °FClear.2 mph93%30.15 "Hg10 mi
5:50 am25 °FClear.2 mph93%30.15 "Hg10 mi
5:20 am25 °FPassing clouds.3 mph93%30.15 "HgN/A
4:50 am27 °FChilly.3 mph86%30.15 "HgN/A
4:20 am28 °FPassing clouds.6 mph93%30.12 "HgN/A
3:50 am25 °FPassing clouds.3 mph86%30.15 "HgN/A
3:20 am25 °FPassing clouds.3 mph93%30.15 "HgN/A
2:50 am25 °FPassing clouds.1 mph86%30.15 "HgN/A
2:20 am25 °FPassing clouds.3 mph86%30.18 "HgN/A
1:50 am27 °FPassing clouds.1 mph93%30.18 "HgN/A
1:20 am28 °FChilly.1 mph86%30.18 "HgN/A
12:50 am32 °FChilly.3 mph80%30.18 "HgN/A
12:20 am32 °FChilly.5 mph80%30.21 "HgN/A
11:50 pm
Sat, Dec 10
32 °FChilly.7 mph80%30.21 "HgN/A
11:20 pm30 °FChilly.5 mph86%30.21 "HgN/A
10:50 pm28 °FClear.6 mph93%30.24 "Hg10 mi
10:20 pm28 °FClear.6 mph86%30.24 "Hg10 mi
9:50 pm28 °FPassing clouds.3 mph80%30.24 "HgN/A
9:20 pm30 °FPassing clouds.3 mph86%30.27 "HgN/A
8:50 pm30 °FClear.6 mph86%30.27 "Hg10 mi
8:20 pm30 °FClear.3 mph86%30.27 "Hg10 mi
7:50 pm32 °FClear.3 mph80%30.27 "Hg10 mi
7:20 pm34 °FPassing clouds.3 mph75%30.27 "HgN/A
6:50 pm37 °FClear.3 mph65%30.27 "Hg10 mi
6:20 pm36 °FClear.2 mph70%30.27 "Hg10 mi
5:50 pm36 °FClear.6 mph75%30.27 "Hg10 mi
5:20 pm36 °FPassing clouds.3 mph70%30.27 "HgN/A
4:50 pm39 °FClear.3 mph65%30.27 "Hg10 mi
4:20 pm39 °FClear.7 mph65%30.27 "Hg10 mi
3:50 pm45 °FSunny.6 mph57%30.27 "Hg10 mi
3:20 pm46 °FSunny.1 mph57%30.27 "Hg10 mi
2:50 pm50 °FSunny.3 mph47%30.27 "Hg10 mi
2:20 pm52 °FSunny.2 mph41%30.27 "Hg10 mi
Weather by CustomWeather, © 2016

See weather overviewHow to use our weather pages